FW9787 Weather Reports


time (UTC)temp
C
wind
direction
speed
KPH
gust
KPH
rain 1hr
cm
rain 24hr
cm
rain mn
cm
humidity
%
barometer
mb
20260503224503 20 258 8.0 22.5 0.00 0.00 0.00 3 1000.6
20260503223100 21 246 3.2 16.1 0.00 0.00 0.00 6 1000.6
20260503221555 21 290 6.4 22.5 0.00 0.00 0.00 4 1000.6
20260503220050 21 271 3.2 24.1 0.00 0.00 0.00 6 1000.7
20260503214554 21 315 4.8 22.5 0.00 0.00 0.00 4 1000.7
20260503213104 21 242 3.2 14.5 0.00 0.00 0.00 3 1000.7
20260503211556 21 342 1.6 22.5 0.00 0.00 0.00 6 1000.8
20260503210035 21 248 3.2 20.9 0.00 0.00 0.00 6 1001.1
20260503204544 21 252 9.7 22.5 0.00 0.00 0.00 4 1001.2
20260503203025 21 290 4.8 27.4 0.00 0.00 0.00 2 1001.4
20260503201524 21 286 3.2 16.1 0.00 0.00 0.00 3 1001.6
20260503200016 21 240 6.4 29.0 0.00 0.00 0.00 2 1001.9
20260503194518 21 309 1.6 20.9 0.00 0.00 0.00 1 1001.8
20260503193008 21 240 9.7 22.5 0.00 0.00 0.00 1 1002.1
20260503191503 21 279 6.4 16.1 0.00 0.00 0.00 1 1002.2
20260503190059 20 336 8.0 17.7 0.00 0.00 0.00 1 1002.2
20260503184618 20 311 8.0 35.4 0.00 0.00 0.00 1 1002.5
20260503183052 20 297 8.0 22.5 0.00 0.00 0.00 2 1002.6
20260503181547 21 319 6.4 12.9 0.00 0.00 0.00 3 1002.6
20260503180042 20 337 6.4 16.1 0.00 0.00 0.00 5 1002.7
20260503174550 20 292 9.7 20.9 0.00 0.00 0.00 3 1002.8
20260503173033 20 242 8.0 30.6 0.00 0.00 0.00 5 1002.8
20260503171533 19 248 9.7 27.4 0.00 0.00 0.00 17 1002.9
20260503081611 5 360 0.0 0.0 0.00 0.00 0.00 100 1004.0
20260503071505 5 360 1.6 3.2 0.00 0.00 0.00 100 1004.7
20260503070115 5 360 0.0 0.0 0.00 0.00 0.00 100 1004.9
20260503060103 3 360 0.0 0.0 0.00 0.00 0.00 100 1005.8
20260503054557 3 360 0.0 0.0 0.00 0.00 0.00 100 1005.9
20260503053048 3 360 0.0 0.0 0.00 0.00 0.00 100 1006.1
20260503051550 3 360 0.0 0.0 0.00 0.00 0.00 100 1006.1
20260503050044 4 360 0.0 1.6 0.00 0.00 0.00 100 1006.3
20260503044544 4 360 0.0 0.0 0.00 0.00 0.00 100 1006.3
20260503043046 5 360 0.0 4.8 0.00 0.00 0.00 100 1006.4
20260503041542 6 360 1.6 4.8 0.00 0.00 0.00 77 1007.0
20260503040041 6 355 0.0 0.0 0.00 0.00 0.00 70 1006.6
20260503034545 7 355 0.0 4.8 0.00 0.00 0.00 69 1006.6
20260503033052 7 340 0.0 4.8 0.00 0.00 0.00 68 1006.8
20260503031540 7 340 0.0 4.8 0.00 0.00 0.00 68 1007.0
20260503030040 8 133 1.6 4.8 0.00 0.00 0.00 67 1007.0
20260503024545 8 134 0.0 3.2 0.00 0.00 0.00 66 1007.1
20260503023044 8 134 0.0 0.0 0.00 0.00 0.00 66 1007.3
20260503021538 8 134 0.0 3.2 0.00 0.00 0.00 65 1007.0
20260503020041 8 134 0.0 4.8 0.00 0.00 0.00 63 1006.9
20260503014536 9 134 0.0 0.0 0.00 0.00 0.00 61 1006.9
20260503013038 9 134 0.0 3.2 0.00 0.00 0.00 59 1006.7
20260503011535 10 134 0.0 4.8 0.00 0.00 0.00 56 1006.8
20260503010035 10 134 0.0 3.2 0.00 0.00 0.00 54 1006.8
20260503004538 10 134 0.0 3.2 0.00 0.00 0.00 50 1006.8
20260503003038 10 134 0.0 6.4 0.00 0.00 0.00 48 1006.9
20260503001532 11 134 0.0 1.6 0.00 0.00 0.00 48 1006.9
20260503000030 11 134 0.0 3.2 0.00 0.00 0.00 42 1007.2
20260502234534 12 134 0.0 3.2 0.00 0.00 0.00 39 1007.3
20260502233029 13 134 0.0 4.8 0.00 0.00 0.00 38 1007.5
20260502231528 15 134 1.6 4.8 0.00 0.00 0.00 34 1007.6
20260502230026 15 134 0.0 6.4 0.00 0.00 0.00 29 1007.7